GFSFLT1_700_rhum_174.txt.gz
RH
15 16 16 16 16 15 14 15 15 16 19 22 25 33 32 41 59 63 66 61 58 58 54 48 40 34 33 41 56 60 60 55 42
12 10 8 6 6 7 7 7 8 7 7 7 7 8 8 17 29 30 36 46 59 71 68 67 64 59 50 41 35 40 58 65 64
6 6 8 9 9 10 9 9 9 9 10 10 10 10 10 10 9 9 10 14 16 37 47 62 72 73 72 59 45 44 45 36 42
8 9 9 8 7 7 7 8 8 8 9 9 10 10 10 11 11 12 11 11 11 22 24 35 55 46 44 38 41 39 38 46 49
9 8 7 6 7 8 10 11 12 12 12 11 11 11 12 12 13 14 14 14 14 41 70 78 70 46 56 63 67 71 69 66 68
7 6 7 8 11 12 12 10 9 8 7 7 7 8 8 8 8 9 10 12 27 52 53 43 54 55 48 49 53 55 55 58 60
7 6 10 12 12 10 8 7 6 6 6 5 6 6 6 6 6 6 7 8 10 19 25 25 34 27 26 21 29 41 65 68 62
6 8 11 12 10 7 6 6 6 6 6 5 4 4 3 3 4 4 4 4 4 6 14 17 16 16 18 20 20 20 21 19 20
7 11 13 10 7 6 6 6 6 5 3 3 2 3 3 3 4 5 6 6 6 5 8 12 18 20 19 17 16 17 18 18 19
11 13 11 7 6 6 7 6 4 3 3 3 3 4 5 8 10 11 11 12 12 9 7 10 14 18 21 23 21 19 18 18 17
13 11 7 7 7 7 6 4 3 3 3 3 4 6 9 14 18 20 20 21 18 15 14 18 22 24 25 23 23 22 22 24 24
12 8 7 7 8 8 4 3 3 3 3 6 8 12 16 22 29 28 28 27 25 25 31 29 28 27 28 30 28 24 23 22 19
8 8 9 10 9 5 4 3 3 5 9 13 19 26 30 34 35 34 33 35 34 32 31 29 27 26 25 25 24 18 12 11 12
8 10 12 13 8 5 4 4 3 10 13 15 24 32 38 38 39 38 36 34 32 31 30 31 30 28 25 19 14 13 13 13 14
12 14 17 15 9 6 4 4 5 13 16 14 21 34 40 39 38 37 36 37 37 35 29 23 21 20 18 16 15 15 14 14 14
15 18 19 12 8 6 4 4 4 15 19 20 15 19 32 34 36 34 30 26 25 26 26 25 22 20 18 17 15 16 16 14 15
24 24 17 10 6 5 5 4 4 12 17 18 18 13 12 16 20 19 19 16 14 14 16 21 25 24 20 16 16 17 17 15 14
23 17 13 10 8 6 6 5 4 8 14 15 15 13 10 9 11 13 16 11 8 6 8 12 19 22 18 18 18 19 19 19 19
19 17 11 10 12 12 10 8 5 5 9 15 14 12 10 9 8 8 7 7 6 5 5 8 12 21 21 21 23 22 25 28 27
24 20 14 14 18 20 19 17 12 7 6 6 13 14 14 11 11 9 8 7 6 5 5 6 10 19 23 22 24 26 31 26 12

GFSFLT1_700_rhum_180.txt.gz
RH
5 6 8 8 8 8 7 6 6 6 7 7 7 8 8 9 10 9 10 13 16 21 28 42 54 61 62 58 56 51 42 35 42
7 8 8 7 6 6 6 6 6 7 8 8 8 8 8 8 9 9 10 10 10 10 10 19 33 35 44 56 63 66 64 54 46
8 7 6 5 5 6 8 8 9 10 10 10 9 9 9 10 10 11 11 12 12 11 17 39 37 59 66 36 30 41 37 32 41
7 7 6 5 6 8 9 10 9 8 8 7 7 6 6 6 7 7 7 8 9 11 14 47 51 58 74 77 78 56 61 64 62
7 6 6 6 8 9 10 9 8 7 6 6 5 5 5 5 5 5 5 6 7 8 10 32 63 69 82 81 87 82 72 70 70
7 6 6 8 10 10 9 7 6 6 5 5 5 5 5 5 5 4 4 4 4 5 6 20 56 73 90 89 87 83 76 68 63
7 6 7 10 9 8 7 7 6 6 5 5 4 4 3 3 3 3 3 3 4 4 6 6 19 30 63 89 79 70 54 69 63
6 7 10 9 8 7 7 6 6 6 5 4 3 3 3 3 3 3 4 5 6 7 9 12 11 11 14 19 27 34 25 26 17
7 9 9 8 8 7 7 7 7 6 5 4 3 3 3 4 6 6 6 8 11 14 16 18 16 15 11 9 12 18 21 22 20
10 10 9 8 8 8 8 8 8 6 4 3 3 4 6 8 12 17 20 21 23 24 24 25 24 20 17 14 14 16 19 20 21
10 9 8 8 9 9 9 10 9 7 4 3 4 7 8 13 20 26 29 31 31 31 31 30 30 29 28 24 24 23 24 26 25
9 9 9 9 10 10 12 14 11 8 4 4 7 10 10 18 29 34 38 37 36 35 34 34 34 34 35 31 30 30 31 30 27
9 10 10 10 11 12 14 15 11 8 5 4 7 12 10 15 28 37 38 38 36 35 34 33 32 30 30 28 28 27 27 24 19
10 10 11 13 14 16 16 15 13 7 5 4 6 13 14 11 16 22 28 32 36 35 35 34 34 34 32 31 29 25 20 16 15
11 12 13 16 17 17 15 11 9 7 5 4 5 12 15 14 11 11 13 16 17 20 24 26 26 24 23 22 20 19 18 17 16
13 14 15 18 19 19 17 12 9 8 8 5 6 10 14 14 12 10 8 8 8 9 8 7 9 13 23 23 20 19 17 17 17
14 16 20 21 22 21 19 15 10 12 11 9 5 7 11 13 14 12 12 10 8 7 6 6 6 10 16 22 21 18 18 18 19
18 21 21 21 23 23 22 18 12 12 15 16 15 9 6 11 14 16 15 13 11 8 6 6 6 7 11 18 21 20 19 20 20
16 16 14 16 18 21 23 21 16 13 13 14 16 17 18 14 10 9 10 12 11 10 8 6 6 7 10 15 20 20 21 20 22
18 12 12 14 15 14 16 15 14 14 14 14 22 27 23 21 19 21 15 10 8 7 8 7 6 6 7 10 15 18 19 21 20

GFSFLT1_700_rhum_183.txt.gz
RH
7 8 8 7 6 6 6 6 7 7 8 8 8 8 9 9 9 9 9 9 9 10 11 20 20 24 42 62 66 65 64 59 48
8 8 6 6 6 6 7 8 9 9 10 9 9 9 9 9 10 10 11 12 11 10 10 48 35 64 71 39 27 29 41 52 60
7 7 6 6 6 7 8 9 10 9 8 8 7 7 6 6 6 7 7 8 9 10 13 17 50 55 59 69 80 71 52 36 36
7 7 6 6 6 7 9 9 8 7 7 6 6 6 5 5 5 5 5 5 6 7 8 11 17 50 69 71 81 86 92 82 77
7 6 6 6 7 8 8 8 7 7 6 6 5 5 5 5 4 4 4 5 5 4 5 7 10 22 58 61 80 88 90 96 88
6 6 6 6 8 9 8 7 7 6 6 6 5 5 4 4 3 3 3 3 3 3 4 5 6 10 32 75 86 87 89 93 88
6 6 6 8 9 8 7 7 7 7 7 6 5 4 3 3 3 3 3 4 4 5 7 8 8 9 21 70 77 88 92 92 93
6 6 8 9 8 8 8 8 8 8 7 6 5 3 3 3 5 7 8 9 8 8 11 15 16 14 14 30 37 58 79 87 61
6 8 9 8 8 8 8 8 8 9 8 7 5 4 4 5 6 9 14 18 20 19 18 19 21 20 19 19 18 15 12 13 18
7 8 8 8 9 9 8 8 8 9 11 9 6 4 5 7 9 16 23 26 27 26 27 28 27 27 26 24 21 17 14 12 12
8 8 9 9 9 8 8 8 9 12 12 10 6 4 6 8 10 22 30 31 32 33 33 32 32 35 34 32 30 27 23 22 23
9 9 10 10 9 9 11 12 14 15 11 8 5 4 8 11 10 16 25 32 34 35 34 34 34 32 33 33 35 36 35 33 32
9 10 10 10 10 13 15 15 14 13 11 7 5 4 9 13 11 8 11 18 22 28 32 35 34 35 34 33 31 30 29 28 27
10 11 10 11 12 16 17 16 16 11 10 7 6 4 7 12 14 11 8 9 9 11 16 21 25 26 25 25 25 26 26 23 18
12 11 12 13 15 16 17 18 17 14 9 8 7 6 5 10 14 12 11 9 7 7 8 7 7 9 16 24 23 21 21 19 17
12 12 14 15 16 16 15 17 20 18 12 10 9 9 6 6 12 14 14 13 11 8 6 6 5 6 8 11 20 23 20 18 17
14 16 16 15 14 11 10 12 18 20 16 10 9 12 12 8 6 10 15 16 15 12 10 7 5 6 7 10 16 20 20 19 19
18 17 17 17 10 7 8 10 11 13 13 12 11 10 10 13 15 11 8 9 12 13 12 10 8 6 6 9 15 21 20 20 22
16 18 17 9 7 9 11 12 13 11 12 13 12 12 11 10 14 21 17 16 12 9 7 8 8 7 6 6 9 15 19 20 21
18 16 10 8 9 11 12 13 14 11 12 13 15 15 13 12 10 11 31 39 28 19 16 13 8 7 7 6 6 7 14 20 20

GFSFLT1_700_rhum_186.txt.gz
RH
7 7 7 6 5 5 6 7 8 8 9 9 9 8 8 8 8 9 10 10 10 11 10 12 40 51 18 18 27 25 40 56 61
7 7 6 6 5 6 7 7 8 9 8 8 7 7 6 6 6 6 6 7 7 8 11 13 14 30 65 78 81 68 58 28 47
6 6 6 5 6 6 7 8 8 7 7 6 6 6 6 5 5 5 5 6 6 6 7 8 11 16 50 62 65 76 83 87 78
6 6 6 6 6 7 7 7 7 7 6 6 6 6 6 5 5 4 4 4 4 5 5 5 7 10 22 51 65 82 83 88 89
6 6 6 5 6 7 7 7 7 7 7 7 7 6 6 5 4 3 3 3 3 3 3 4 5 6 10 17 48 84 77 90 100
6 6 5 6 7 7 7 7 8 8 8 8 7 6 5 4 3 3 3 3 3 3 4 7 7 6 6 10 21 66 84 94 100
6 5 6 7 7 7 8 8 8 7 7 7 8 7 6 4 4 4 5 6 8 10 10 9 10 12 12 10 12 34 68 84 100
6 6 7 8 8 8 8 7 6 7 8 8 9 8 6 4 4 6 7 11 15 18 20 21 21 18 18 18 16 16 34 56 83
6 7 8 8 8 9 7 6 8 8 7 9 10 9 6 4 6 7 10 18 24 26 28 28 27 27 28 27 26 25 24 21 16
6 8 8 8 9 8 7 7 10 8 10 12 10 8 5 4 7 8 10 19 28 30 30 31 31 32 31 30 30 32 29 25 20
7 8 9 9 9 8 7 10 11 11 11 12 12 7 5 4 6 9 7 9 17 24 30 32 32 32 32 33 33 33 34 33 31
9 9 10 10 9 8 9 13 14 13 13 12 11 8 6 4 5 10 9 7 7 10 16 22 30 32 34 33 32 31 31 32 34
10 10 10 10 9 9 12 14 14 15 15 12 9 8 7 5 4 8 11 9 7 6 6 8 13 19 24 24 28 32 33 31 29
11 11 11 10 10 11 12 12 9 11 15 16 11 8 7 7 5 6 11 11 10 9 6 5 5 6 7 14 22 23 22 22 22
12 12 11 11 11 12 13 11 8 6 9 14 15 10 9 8 8 6 8 13 12 12 11 8 5 5 6 8 10 20 22 21 20
13 13 12 13 12 15 14 6 6 7 8 11 13 10 11 10 10 11 9 8 13 16 14 13 10 6 5 6 8 14 19 19 18
14 14 15 13 15 13 8 6 7 9 9 8 9 10 13 14 10 11 12 12 10 8 12 14 13 11 8 6 6 11 18 20 19
15 16 15 15 13 10 8 6 7 9 9 9 9 8 10 10 15 15 14 12 12 11 11 10 8 8 9 8 6 6 11 18 19
18 17 16 14 13 11 8 7 8 9 10 12 13 12 11 10 9 13 11 12 10 12 18 20 15 14 9 7 7 6 6 10 17
17 17 15 14 12 8 9 11 12 11 12 15 19 18 16 15 10 8 13 14 15 12 9 11 25 26 22 16 11 7 6 6 8

GFSFLT1_700_rhum_189.txt.gz
RH
7 6 6 5 5 5 6 7 7 7 7 7 7 6 6 6 6 6 5 6 6 7 8 12 13 24 56 56 54 48 58 31 30
6 6 6 5 5 5 6 7 7 6 6 6 6 6 6 6 6 5 5 5 5 5 6 6 8 11 15 26 73 92 92 83 80
6 6 5 5 5 6 6 6 6 6 6 7 7 7 7 7 6 5 5 4 4 4 4 4 5 6 10 13 57 76 78 84 87
6 6 6 5 5 6 6 6 7 7 7 8 7 6 6 6 6 5 4 3 3 3 3 4 3 4 6 8 14 41 54 80 92
6 6 5 5 6 6 7 7 7 7 6 5 6 6 6 6 6 4 3 3 3 4 4 5 5 5 5 6 8 14 38 67 88
6 6 6 6 6 7 7 7 6 5 6 6 5 6 7 7 6 4 4 4 5 6 7 9 10 10 8 8 7 8 12 40 81
6 6 6 6 7 7 7 7 5 6 7 6 6 7 8 7 5 4 4 5 8 13 17 19 19 19 18 14 12 12 9 11 20
6 6 7 7 8 8 8 7 6 8 7 6 7 9 9 7 4 4 5 6 10 19 24 25 25 25 25 23 22 21 20 18 16
6 7 8 8 8 8 8 6 7 9 8 9 10 11 8 6 4 4 6 6 7 13 22 27 30 28 28 28 28 28 27 26 24
6 7 8 9 9 8 7 7 8 9 10 12 11 11 9 6 5 5 6 7 5 5 10 16 21 26 30 29 27 26 26 26 27
7 8 9 9 9 8 7 7 9 9 9 12 12 11 9 7 5 5 6 9 7 5 5 5 9 13 19 27 31 30 29 30 33
7 8 9 9 9 8 8 8 9 8 7 7 13 12 9 7 6 5 6 9 10 9 7 4 4 4 5 13 22 26 31 32 30
8 9 10 10 10 9 8 10 12 9 6 5 6 14 10 8 7 6 6 8 11 12 11 9 7 4 4 5 7 18 21 21 27
8 10 10 10 10 9 9 10 10 7 5 6 6 6 10 9 8 8 7 6 8 12 14 14 12 9 5 4 5 7 17 19 20
10 11 11 11 10 10 10 10 9 7 5 6 6 6 6 8 9 9 10 10 9 7 10 14 14 13 11 7 4 5 9 16 20
12 12 12 12 11 11 10 8 9 6 6 7 8 6 7 8 9 9 10 11 13 12 10 8 9 12 12 11 8 5 7 14 18
13 13 13 13 12 12 10 9 9 6 6 7 7 7 8 9 9 8 9 10 12 14 14 14 12 10 8 8 9 8 6 6 12
15 15 15 14 14 11 10 9 7 6 8 9 9 9 9 9 12 10 9 10 11 11 11 12 16 18 17 15 10 7 7 6 6
17 16 16 16 13 10 8 6 7 11 15 14 12 11 13 14 10 12 13 9 11 12 12 12 12 13 16 20 22 16 10 7 6
19 19 19 14 12 9 9 19 30 33 31 24 18 15 14 15 15 11 13 13 17 13 11 10 11 13 13 14 15 19 24 19 13